Location: Unspecified
(0.0000°N, 0.0000°E)
Time: 01:59:37
(UTC+00:00)

S-56A Canister/Altair - All Passes

Search period start: 25 May 2024 00:00
Search period end: 04 June 2024 00:00
Orbit: 638 x 2488 km, 38.9° (Epoch: 24 May)

Date Brightness Start Highest point End Pass type
(mag) Time Alt. Az. Time Alt. Az. Time Alt. Az.
25 May - 01:05:20 10° SW 01:18:58 64° SE 01:33:39 10° ENE visible
25 May - 03:11:42 10° WSW 03:25:51 50° NW 03:39:02 10° NNE visible
25 May - 05:26:48 10° WNW 05:33:23 14° NW 05:39:25 10° N visible
25 May - 14:01:01 10° NW 14:05:41 77° SW 14:10:13 10° SE daylight
25 May - 22:30:55 10° S 22:37:28 16° SE 22:44:52 10° ESE night (unlit)
26 May - 00:31:33 10° SSW 00:44:28 56° SE 00:59:01 10° ENE visible
26 May - 02:37:05 10° WSW 02:51:18 57° NW 03:05:12 10° NE visible
26 May - 04:50:07 10° WNW 04:58:51 18° NW 05:06:46 10° N visible
26 May - 13:27:26 10° NW 13:32:21 77° NE 13:36:48 10° SE daylight
26 May - 21:58:59 10° SSE 22:03:04 12° SE 22:07:32 10° ESE night (unlit)
26 May - 23:57:54 10° SSW 00:10:00 48° SE 00:24:11 10° ENE visible
27 May - 02:02:40 10° WSW 02:16:44 65° NW 02:31:13 10° NE visible
27 May - 04:14:02 10° W 04:24:16 22° NW 04:33:42 10° N visible
27 May - 12:53:50 10° NW 12:58:58 57° NE 13:03:20 10° ESE daylight
27 May - 15:01:08 10° SW 15:02:32 11° SW 15:03:58 10° SSW daylight
27 May - 23:24:24 10° SSW 23:35:36 41° SE 23:49:10 10° ENE visible
28 May - 01:28:25 10° SW 01:42:09 73° NW 01:57:04 10° NE visible
28 May - 03:38:22 10° W 03:49:39 25° NW 04:00:20 10° NNE visible
28 May - 12:20:13 10° NNW 12:25:31 43° NE 12:29:51 10° ESE daylight
28 May - 14:26:19 10° WSW 14:29:01 15° SW 14:31:40 10° S daylight
28 May - 22:51:03 10° SSW 23:01:17 35° SE 23:13:55 10° ENE visible
29 May - 00:54:20 10° SW 01:07:36 82° NW 01:22:48 10° NE visible
29 May - 03:03:03 10° W 03:15:02 30° NW 03:26:46 10° NNE visible
29 May - 11:46:34 10° NNW 11:52:01 34° NE 11:56:18 10° ESE daylight
29 May - 13:51:56 10° W 13:55:32 21° SW 13:58:55 10° S daylight
29 May - 22:17:52 10° SSW 22:27:01 29° SE 22:38:26 10° E night (unlit)
30 May - 00:20:24 10° SW 00:33:05 89° SE 00:48:22 10° NE visible
30 May - 02:28:01 10° W 02:40:23 34° NW 02:53:01 10° NNE visible
30 May - 11:12:52 10° NNW 11:18:24 28° NE 11:22:42 10° E daylight
30 May - 13:17:43 10° WNW 13:22:08 28° SW 13:26:01 10° SSE daylight
30 May - 21:44:54 10° S 21:52:50 24° SE 22:02:41 10° E night (unlit)
30 May - 23:46:38 10° SW 23:58:39 79° SE 00:13:49 10° NE visible
31 May - 01:53:15 10° WSW 02:05:44 39° NW 02:19:06 10° NNE visible
31 May - 04:10:29 10° NW 04:14:49 12° NNW 04:19:02 10° N visible
31 May - 10:39:09 10° NNW 10:44:43 24° NNE 10:49:01 10° E daylight
31 May - 12:43:33 10° WNW 12:48:45 39° SW 12:53:01 10° SSE daylight
31 May - 21:12:12 10° S 21:18:42 18° SE 21:26:35 10° E night (unlit)
31 May - 23:12:59 10° SW 23:24:17 70° SE 23:39:05 10° NE visible
01 Jun - 01:18:43 10° WSW 01:31:07 44° NW 01:45:04 10° NNE visible
01 Jun - 03:33:14 10° WNW 03:39:59 14° NNW 03:46:35 10° N visible
01 Jun - 10:05:23 10° NNW 10:10:56 21° NNE 10:15:16 10° E daylight
01 Jun - 12:09:24 10° WNW 12:15:22 55° SW 12:19:56 10° SE daylight
01 Jun - 20:40:02 10° SSE 20:44:37 14° SE 20:49:54 10° ESE night (unlit)
01 Jun - 22:39:29 10° SW 22:50:00 60° SE 23:04:14 10° ENE visible
02 Jun - 00:44:24 10° WSW 00:56:31 50° NW 01:10:53 10° NNE visible
02 Jun - 02:56:55 10° WNW 03:05:09 17° NNW 03:13:24 10° N visible
02 Jun - 09:31:34 10° NNW 09:37:04 19° NNE 09:41:24 10° ENE daylight
02 Jun - 11:35:17 10° NW 11:41:56 74° SW 11:46:47 10° SE daylight
02 Jun - 22:06:06 10° SSW 22:15:50 51° SE 22:29:13 10° ENE visible
03 Jun - 00:10:15 10° WSW 00:21:58 56° NW 00:36:35 10° NE visible
03 Jun - 02:21:08 10° WNW 02:30:20 19° NNW 02:39:52 10° N visible
03 Jun - 08:57:42 10° N 09:03:05 17° NNE 09:07:26 10° ENE daylight
03 Jun - 11:01:07 10° NW 11:08:27 86° NE 11:13:34 10° SE daylight
03 Jun - 21:32:51 10° SSW 21:41:45 42° SE 21:54:05 10° ENE night (unlit)
